Wind_Speed
40 37 35 33 33 31 30 29 28 27 25 24 22 21 20 20 20 19 19 19 19 19 20 20 18 16 15 13 10 8 6 7 5 5 6 8 6 4 6 7 6 8 8 8 6
40 38 37 36 35 34 34 32 30 29 28 26 24 23 22 21 21 20 19 19 19 19 19 18 17 16 15 13 12 10 9 10 10 8 6 9 8 7 8 8 8 10 11 10 10
41 40 39 38 38 37 36 35 34 32 31 28 26 25 24 23 22 21 20 20 19 19 18 18 17 16 16 15 14 13 12 13 12 11 9 10 9 10 8 10 13 12 10 12 13
42 42 42 41 40 40 39 39 37 36 33 30 29 28 27 25 25 23 21 21 20 20 19 18 17 19 18 18 17 15 16 15 15 13 12 12 12 13 10 12 16 15 13 13 14
41 42 43 42 42 42 42 42 40 38 35 34 33 32 30 29 28 25 23 22 21 20 19 18 20 19 18 19 18 17 17 15 16 16 15 16 16 14 13 15 16 17 18 16 15
38 41 43 43 44 44 45 44 43 40 38 37 36 35 34 32 31 28 26 25 23 22 20 20 19 19 19 20 18 17 17 15 17 18 19 19 18 18 18 18 17 18 19 20 17
40 40 42 44 45 46 46 46 45 43 42 41 40 38 37 36 34 31 30 28 27 25 23 22 20 20 19 19 19 18 18 18 21 20 20 21 18 19 20 20 19 20 20 21 21
44 44 43 44 46 47 47 47 47 46 45 45 44 42 41 39 37 34 33 33 30 29 28 26 25 23 21 21 19 20 21 21 22 20 20 22 17 23 23 24 23 23 23 22 22
46 48 47 46 46 48 48 49 49 49 48 48 47 46 44 41 39 38 37 36 34 33 32 31 29 27 25 24 23 24 25 23 23 24 25 26 21 26 27 27 25 25 24 25 24
60 51 52 50 48 49 49 49 50 51 51 51 50 48 46 42 41 41 40 39 38 37 35 34 33 31 28 27 29 29 27 26 26 27 29 29 26 29 29 30 29 26 26 27 27
46 60 50 53 52 50 51 51 51 53 54 52 52 51 49 46 45 43 43 42 40 39 38 38 37 30 30 32 33 32 31 30 30 33 33 33 34 34 37 35 31 31 30 28 28
50 51 60 61 55 54 54 54 54 55 56 54 55 53 52 50 47 46 45 45 44 43 43 41 38 35 35 34 35 34 35 32 33 36 40 38 39 40 41 38 35 34 30 28 29
55 52 53 48 69 55 57 56 56 56 59 55 56 56 55 53 52 50 49 48 48 46 45 43 41 39 38 37 38 36 36 35 38 39 42 44 47 42 35 33 31 31 29 27 27
56 54 56 55 53 70 60 57 58 59 61 62 56 59 57 56 56 54 54 52 51 48 47 48 44 41 40 41 40 40 37 40 39 42 47 48 54 39 32 29 29 25 28 28 29
58 56 52 44 47 46 74 68 63 60 64 65 63 60 60 61 59 55 55 54 53 51 50 50 47 45 45 42 42 41 39 40 42 48 51 50 53 45 32 25 22 26 30 29 30
61 57 57 47 44 40 42 53 70 64 71 70 67 64 64 62 63 61 57 55 55 54 53 52 52 48 46 44 43 43 42 43 47 51 61 51 53 54 38 28 25 26 30 33 35
64 62 60 58 54 50 45 49 52 51 67 80 74 71 70 67 64 62 60 59 57 55 55 53 52 50 48 46 46 46 45 47 53 57 63 55 55 50 43 34 33 31 32 33 35
65 63 62 60 57 59 60 53 54 54 46 62 73 82 81 79 73 69 65 61 59 59 58 57 57 51 49 48 45 41 41 47 52 57 56 52 44 33 31 26 27 28 27 30 35
67 65 63 61 59 60 64 70 59 52 41 38 49 64 70 69 69 73 72 70 68 65 63 62 60 57 55 52 48 52 59 54 54 57 56 48 42 37 37 35 31 26 27 29 32
70 69 65 63 63 58 62 73 62 60 54 50 43 42 50 55 60 60 62 65 64 61 53 51 57 62 64 62 58 54 47 46 49 54 55 53 49 46 42 40 40 34 31 30 32
72 73 68 66 68 66 66 63 69 66 61 55 52 55 46 53 52 59 59 59 59 57 54 51 52 55 51 52 50 47 46 48 51 53 54 53 47 48 45 39 37 37 32 26 26
71 74 72 69 72 72 70 64 72 70 68 64 60 57 53 52 53 53 56 52 52 48 49 47 52 55 54 51 51 50 51 51 52 50 50 51 45 46 46 38 36 37 37 37 32
72 71 75 67 73 76 70 68 69 71 65 58 62 63 53 47 50 47 54 53 49 48 45 41 47 50 55 58 58 60 58 51 48 48 51 54 47 49 44 43 39 37 39 41 40
75 74 73 78 68 66 71 68 71 71 72 55 60 67 72 69 60 58 53 54 45 48 46 46 48 49 51 51 53 53 52 49 50 54 55 53 48 45 43 42 40 38 42 43 40
82 79 76 78 78 75 69 66 70 72 69 76 53 66 68 75 66 67 60 55 53 47 48 49 49 47 47 45 47 49 51 53 57 54 56 48 52 45 43 46 45 44 44 45 46
84 82 80 77 76 76 77 76 67 64 71 73 71 71 70 72 69 62 61 58 55 56 48 48 48 45 46 45 50 52 51 55 57 56 58 57 55 49 48 48 46 46 48 50 51
83 83 82 81 76 76 77 77 74 70 66 67 71 69 77 74 70 71 70 70 66 65 58 54 50 50 50 43 48 52 50 54 54 52 51 55 48 47 49 47 47 44 47 52 53
Wind_Direction
219 219 219 221 220 219 220 222 223 220 219 216 217 214 211 208 207 205 200 200 199 198 199 199 201 205 210 213 220 235 266 292 312 307 312 322 333 308 269 280 282 284 287 288 298
224 222 221 219 220 220 220 221 223 222 221 219 218 215 209 203 201 201 201 200 202 201 203 205 209 215 220 226 233 241 255 280 300 304 293 300 316 296 279 283 276 265 272 273 274
224 225 224 221 220 220 222 222 221 221 220 220 218 210 203 201 200 199 200 201 201 203 205 211 215 223 229 234 240 248 259 272 282 291 286 292 299 296 297 280 276 277 271 264 266
224 224 224 224 224 224 224 224 222 220 219 218 213 208 206 205 205 204 203 205 208 210 212 216 221 227 231 237 242 250 260 269 279 279 279 285 292 296 299 274 281 282 273 269 265
224 224 225 225 226 226 226 226 223 221 218 216 211 209 209 210 209 209 209 211 214 218 219 222 225 231 238 247 249 256 263 270 277 280 280 284 288 291 288 278 274 282 282 273 268
225 225 225 225 226 225 225 225 224 222 219 216 213 211 212 213 213 213 214 215 217 220 223 227 233 236 238 246 254 257 265 272 274 276 280 282 283 290 281 282 286 274 273 274 270
233 228 226 224 224 225 224 225 224 222 220 217 216 215 216 217 218 217 218 221 222 224 228 231 237 240 242 245 253 259 266 272 274 275 278 281 289 282 285 282 285 284 275 272 270
239 234 230 227 225 223 223 224 223 223 220 218 218 219 220 221 222 223 223 226 228 230 232 236 238 243 247 253 256 262 264 272 276 278 281 285 287 280 281 280 280 279 274 272 269
240 240 234 231 229 225 223 222 223 222 221 221 221 222 223 226 228 228 228 230 232 235 237 239 242 246 250 254 260 264 265 275 284 283 281 281 285 281 282 283 282 279 277 271 268
237 237 239 235 233 232 228 226 223 223 222 222 223 226 226 229 232 232 232 234 236 237 240 244 245 247 253 257 258 264 272 278 282 280 280 281 286 283 283 282 282 283 276 270 265
236 234 238 239 238 236 235 231 231 228 224 226 225 227 229 230 233 234 236 237 239 242 244 245 249 253 255 256 262 267 272 276 281 281 279 282 284 286 282 279 280 274 271 270 266
242 233 234 240 240 238 239 237 235 235 230 229 229 228 231 233 234 237 239 241 243 245 247 250 253 254 257 260 263 267 273 278 278 280 282 284 283 282 283 282 275 272 273 267 261
246 243 233 243 240 239 239 243 241 241 238 230 233 232 234 235 236 237 240 243 246 248 251 253 255 255 259 262 265 268 272 277 277 280 284 287 282 284 282 280 274 270 270 264 260
244 245 245 242 242 237 237 240 242 244 245 234 236 237 238 239 238 239 242 244 247 251 253 254 257 262 261 262 265 268 272 274 278 281 285 285 285 279 283 282 278 272 263 260 262
242 245 240 237 234 239 239 242 244 244 247 242 237 238 240 242 242 242 245 247 249 252 254 256 258 260 261 264 265 271 271 274 276 278 279 280 284 284 279 278 272 264 265 268 265
242 241 246 239 222 226 244 244 244 250 246 247 244 241 243 244 246 247 247 248 250 253 254 257 260 262 264 268 270 270 273 275 274 276 276 282 283 278 282 281 270 265 264 264 265
239 239 239 244 243 243 252 244 224 231 242 244 247 246 245 248 247 249 251 251 254 257 258 261 263 265 266 268 271 272 273 273 272 271 278 281 275 276 284 276 273 269 265 266 271
239 239 238 240 239 247 247 248 250 232 230 236 242 245 247 249 248 250 252 251 252 256 259 261 263 266 270 269 271 267 263 265 273 278 279 277 269 279 286 281 273 268 266 268 272
240 240 238 239 239 238 243 245 243 232 233 245 245 245 246 247 248 250 252 253 254 256 256 259 260 262 261 261 266 268 267 267 267 266 271 273 271 275 276 284 278 271 272 275 267
240 239 237 241 240 239 240 245 248 245 247 247 241 244 245 246 249 248 248 249 252 251 251 256 257 255 257 260 260 258 263 260 262 266 268 268 271 275 277 277 281 281 284 278 263
240 240 236 239 239 237 236 243 247 249 246 246 250 259 245 249 248 246 248 249 250 251 251 253 252 255 254 254 258 259 259 258 262 261 260 266 273 279 275 282 287 287 286 283 263
242 239 236 237 239 239 238 236 241 245 244 249 246 250 246 250 250 248 246 249 251 254 253 252 254 254 258 256 254 251 252 252 253 263 265 268 264 275 277 287 293 289 283 277 267
243 239 236 235 237 239 239 238 235 239 237 244 250 245 238 240 252 244 244 246 247 252 253 251 251 253 254 256 255 255 255 257 260 260 263 264 265 269 276 277 284 281 276 277 277
242 239 237 237 233 236 237 236 237 238 236 235 246 242 249 251 257 253 246 249 247 249 250 254 252 251 253 257 259 258 256 256 259 257 257 258 266 274 278 276 277 284 278 276 276
239 240 238 238 236 235 235 235 234 235 234 231 233 238 243 252 250 251 252 252 252 248 252 251 251 253 251 253 257 258 255 253 253 260 258 263 262 264 266 277 282 277 272 272 270
235 237 239 238 238 236 232 233 233 233 235 235 239 240 237 244 245 247 248 246 253 255 256 257 255 257 253 249 250 251 252 256 256 255 257 265 267 268 277 272 269 272 269 269 268
234 233 236 237 235 237 234 233 233 232 232 235 238 239 237 237 240 241 246 246 253 253 253 252 251 256 256 254 255 255 253 255 258 259 263 261 265 268 263 267 268 265 264 265 263
Height
5813 5817 5820 5825 5828 5832 5835 5839 5842 5844 5847 5849 5852 5854 5855 5857 5859 5861 5863 5865 5866 5868 5871 5872 5874 5876 5878 5880 5880 5880 5881 5881 5881 5881 5880 5879 5879 5879 5878 5878 5878 5877 5877 5878 5877
5809 5811 5815 5818 5823 5826 5830 5833 5837 5840 5843 5846 5848 5850 5852 5854 5856 5859 5861 5862 5865 5867 5869 5871 5873 5874 5876 5878 5878 5879 5879 5879 5878 5879 5879 5878 5877 5878 5877 5876 5876 5876 5875 5876 5876
5802 5806 5810 5813 5816 5820 5825 5828 5832 5835 5839 5841 5844 5846 5849 5851 5854 5856 5858 5860 5863 5865 5867 5869 5871 5872 5874 5875 5876 5877 5877 5876 5877 5877 5877 5876 5875 5875 5876 5875 5874 5874 5874 5874 5874
5794 5799 5804 5808 5812 5815 5819 5823 5826 5830 5834 5837 5840 5842 5845 5848 5852 5853 5855 5858 5860 5862 5864 5866 5868 5869 5871 5871 5872 5874 5874 5874 5874 5874 5874 5873 5873 5873 5873 5872 5871 5871 5871 5871 5871
5786 5791 5796 5800 5805 5809 5813 5817 5821 5824 5828 5832 5835 5838 5841 5845 5848 5850 5852 5854 5857 5859 5861 5863 5864 5866 5868 5868 5869 5870 5871 5871 5870 5870 5870 5870 5870 5870 5870 5869 5868 5868 5867 5868 5868
5778 5783 5787 5792 5797 5801 5805 5810 5814 5818 5822 5826 5829 5832 5836 5840 5843 5845 5848 5851 5853 5855 5857 5859 5860 5862 5864 5864 5866 5866 5867 5868 5867 5867 5867 5866 5866 5866 5865 5865 5865 5865 5864 5863 5864
5773 5776 5779 5783 5788 5793 5797 5802 5807 5811 5816 5820 5823 5827 5831 5834 5837 5840 5843 5846 5848 5850 5852 5854 5856 5858 5859 5860 5861 5862 5863 5863 5862 5863 5863 5862 5864 5862 5861 5860 5861 5859 5860 5859 5859
5767 5770 5773 5776 5780 5783 5788 5794 5799 5804 5808 5812 5816 5820 5825 5828 5831 5834 5837 5840 5843 5845 5847 5849 5851 5853 5854 5856 5857 5858 5858 5858 5858 5858 5859 5858 5860 5856 5856 5855 5855 5855 5854 5854 5855
5758 5763 5766 5770 5773 5776 5780 5784 5790 5795 5799 5804 5809 5813 5818 5822 5825 5828 5831 5834 5836 5839 5841 5843 5846 5847 5849 5851 5852 5851 5851 5853 5853 5853 5852 5852 5854 5851 5851 5850 5850 5850 5849 5849 5849
5748 5752 5757 5761 5765 5770 5773 5776 5780 5784 5790 5794 5800 5806 5812 5816 5818 5821 5825 5827 5829 5832 5835 5837 5839 5841 5844 5845 5845 5844 5846 5847 5847 5848 5845 5845 5848 5846 5845 5845 5845 5845 5843 5843 5843
5735 5741 5746 5752 5756 5761 5767 5768 5774 5776 5780 5785 5791 5796 5801 5806 5810 5813 5817 5820 5822 5825 5828 5829 5832 5838 5837 5837 5838 5839 5840 5841 5841 5838 5838 5838 5839 5839 5837 5839 5840 5838 5837 5837 5837
5724 5730 5735 5740 5745 5752 5756 5759 5762 5766 5770 5775 5780 5787 5792 5797 5802 5805 5809 5813 5815 5817 5819 5823 5827 5829 5829 5831 5831 5832 5832 5834 5833 5831 5827 5830 5830 5831 5829 5830 5831 5830 5831 5830 5829
5714 5719 5724 5728 5734 5741 5746 5748 5749 5753 5757 5768 5771 5778 5783 5787 5792 5796 5800 5802 5806 5809 5812 5814 5818 5821 5822 5824 5824 5825 5825 5825 5823 5821 5819 5818 5815 5821 5823 5821 5821 5822 5823 5822 5822
5702 5707 5711 5716 5723 5729 5733 5732 5738 5743 5745 5757 5763 5766 5772 5777 5780 5786 5788 5793 5796 5801 5802 5804 5809 5812 5814 5815 5815 5816 5817 5815 5814 5811 5810 5810 5798 5812 5815 5814 5814 5815 5813 5814 5815
5690 5694 5699 5706 5710 5716 5720 5724 5727 5732 5730 5744 5750 5756 5762 5764 5772 5777 5779 5782 5786 5790 5793 5797 5799 5801 5803 5808 5806 5809 5808 5806 5804 5802 5799 5801 5794 5796 5807 5809 5809 5807 5805 5806 5806
5676 5681 5686 5690 5699 5704 5710 5712 5717 5717 5717 5726 5737 5745 5748 5754 5757 5762 5768 5771 5774 5776 5780 5784 5787 5792 5796 5797 5797 5799 5798 5797 5795 5791 5783 5796 5790 5776 5795 5800 5801 5800 5799 5797 5796
5661 5667 5674 5680 5689 5689 5695 5694 5695 5689 5710 5717 5720 5729 5734 5738 5744 5749 5755 5760 5764 5766 5770 5774 5777 5780 5784 5786 5787 5788 5789 5786 5782 5777 5774 5782 5777 5772 5780 5788 5789 5789 5789 5788 5787
5645 5652 5659 5668 5674 5676 5677 5678 5677 5686 5695 5700 5704 5708 5716 5722 5729 5735 5740 5746 5753 5756 5758 5760 5763 5770 5773 5775 5775 5775 5777 5775 5769 5770 5767 5766 5762 5769 5771 5774 5777 5779 5780 5779 5777
5629 5635 5646 5655 5658 5660 5659 5654 5665 5679 5685 5688 5691 5693 5700 5708 5715 5721 5725 5732 5739 5744 5745 5745 5748 5755 5761 5759 5762 5763 5761 5768 5763 5759 5754 5755 5757 5760 5762 5763 5766 5770 5770 5769 5767
5611 5618 5634 5637 5640 5642 5639 5639 5654 5664 5672 5674 5676 5682 5687 5693 5698 5704 5710 5719 5723 5729 5728 5730 5733 5739 5741 5745 5746 5747 5753 5752 5751 5747 5745 5742 5745 5748 5752 5752 5753 5758 5760 5759 5757
5593 5600 5618 5618 5617 5618 5620 5632 5644 5653 5657 5660 5667 5671 5674 5680 5685 5689 5697 5704 5709 5713 5715 5718 5719 5723 5727 5730 5733 5737 5737 5738 5739 5737 5734 5733 5735 5736 5738 5744 5746 5745 5746 5747 5747
5571 5582 5595 5597 5595 5600 5607 5624 5630 5634 5643 5648 5653 5658 5664 5670 5671 5675 5683 5690 5693 5696 5700 5705 5702 5708 5711 5716 5718 5720 5721 5722 5724 5728 5730 5727 5722 5728 5728 5734 5735 5734 5734 5734 5736
5551 5565 5571 5574 5573 5584 5600 5607 5614 5617 5627 5634 5640 5646 5652 5652 5655 5665 5670 5677 5680 5682 5688 5690 5689 5693 5697 5701 5701 5701 5708 5714 5715 5716 5716 5715 5713 5715 5723 5724 5724 5723 5721 5721 5722
5532 5541 5551 5550 5563 5571 5581 5589 5595 5606 5611 5619 5628 5631 5634 5638 5642 5649 5658 5660 5666 5670 5673 5672 5673 5680 5684 5689 5689 5692 5697 5701 5701 5700 5701 5703 5707 5709 5709 5712 5713 5714 5711 5710 5711
5508 5521 5533 5532 5544 5559 5565 5571 5580 5588 5593 5601 5605 5613 5622 5625 5631 5635 5645 5649 5653 5658 5659 5656 5660 5667 5673 5675 5675 5675 5679 5682 5680 5687 5682 5697 5692 5703 5703 5699 5700 5698 5698 5698 5698
5489 5502 5513 5521 5529 5535 5543 5551 5564 5574 5579 5585 5591 5603 5608 5608 5617 5630 5631 5632 5635 5639 5645 5644 5649 5650 5654 5661 5659 5660 5664 5667 5666 5670 5667 5677 5679 5687 5688 5685 5686 5687 5685 5684 5683
5470 5484 5489 5499 5508 5511 5524 5537 5548 5560 5562 5569 5579 5585 5585 5596 5604 5610 5612 5615 5618 5623 5628 5632 5635 5636 5637 5647 5642 5637 5656 5652 5656 5659 5660 5658 5671 5670 5669 5670 5668 5670 5670 5670 5669